Weather History for Rogers City, MI

Change the Weather History Date:

Friday, October 26, 2012

  Actual Average (KAPN) Record (KAPN)
Temperature  
Mean Temperature 52 °F 43 °F  
Max Temperature 70 °F 52 °F 78 °F (1989)
Min Temperature 34 °F 34 °F 15 °F (1933)
Degree Days  
Heating Degree Days 13 22  
Month to date heating degree days 469  
Since 1 July heating degree days 826  
Cooling Degree Days 0 0  
Month to date cooling degree days 0  
Year to date cooling degree days 289  
Growing Degree Days 2 (Base 50)    
Moisture  
Dew Point 33 °F    
Average Humidity 64    
Maximum Humidity 87    
Minimum Humidity 39    
Precipitation  
Precipitation 0.00 in 0.08 in 0.92 in (1932)
Month to date precipitation 2.22  
Year to date precipitation 23.92  
Snow  
Snow 0.00 in 0.00 in 2.70 in (1933)
Month to date snowfall 0.2  
Since 1 July snowfall 0.2  
Snow Depth -    
Sea Level Pressure  
Sea Level Pressure 30.11 in    
Wind  
Wind Speed 11 mph (West)    
Max Wind Speed 25 mph    
Max Gust Speed 30 mph    
Visibility 10 miles    
Events Rain    
T = Trace of Precipitation, MM = Missing Value Source: NWS Daily Summary

Daily Weather History Graph

Daily Weather History Graph

Search for Another Location

Airport:

Trip Planner

Search our weather history database for the weather conditions in past years. The results will help you decide how hot, cold, wet, or windy it might be!

Date:

Astronomy

Oct. 26, 2012 Rise Set
Actual Time 8:06 AM EDT 6:30 PM EDT
Civil Twilight 7:36 AM EDT 7:01 PM EDT
Nautical Twilight 7:01 AM EDT 7:35 PM EDT
Astronomical Twilight 6:27 AM EDT 8:09 PM EDT
Moon 4:51 PM EDT (10/26) 4:54 AM EDT (10/26)
Length of Visible Light 11h 24m
Length of Day
10h 23m
Waxing Gibbous, 91% of the Moon is Illuminated
Oct 26
Waxing Gibbous
Oct 29
Full
Nov 6
Last Quarter
Nov 13
New
Nov 20
First Quarter

Hourly Weather History & Observations

Time (EDT) Temp. Windchill Dew Point Humidity Pressure Visibility Wind Dir Wind Speed Gust Speed Precip Events Conditions
12:14 AM 70.7 °F - 54.0 °F 55% 29.67 in 10.0 mi WSW 12.7 mph 16.1 mph N/A   Overcast
12:34 AM 63.3 °F - 55.8 °F 76% 29.71 in 10.0 mi West 18.4 mph 27.6 mph N/A   Overcast
12:54 AM 60.6 °F - 52.9 °F 76% 29.74 in 10.0 mi WSW 25.3 mph 29.9 mph N/A   Overcast
1:14 AM 55.6 °F - 50.7 °F 84% 29.76 in 5.0 mi West 15.0 mph 27.6 mph N/A Rain Rain
1:35 AM 50.0 °F - 45.7 °F 85% 29.80 in 5.0 mi West 15.0 mph 29.9 mph N/A Rain Rain
2:14 AM 48.2 °F - 44.2 °F 86% 29.84 in 7.0 mi West 10.4 mph 19.6 mph N/A Rain Rain
2:35 AM 47.5 °F - 43.9 °F 87% 29.86 in 5.0 mi WNW 15.0 mph - N/A Rain Rain
2:54 AM 46.6 °F - 42.8 °F 87% 29.83 in 5.0 mi WNW 12.7 mph 21.9 mph N/A Rain Heavy Rain
3:34 AM 45.5 °F 38.9 °F 41.4 °F 85% 29.88 in 10.0 mi WNW 15.0 mph 24.2 mph N/A Rain Light Rain
3:54 AM 45.3 °F 39.7 °F 41.4 °F 86% 29.91 in 7.0 mi WNW 11.5 mph 19.6 mph N/A   Overcast
4:15 AM 44.8 °F 39.0 °F 41.0 °F 87% 29.93 in 10.0 mi West 11.5 mph 17.3 mph N/A   Overcast
4:34 AM 44.6 °F 39.2 °F 40.6 °F 86% 29.94 in 7.0 mi West 10.4 mph 17.3 mph N/A   Overcast
4:54 AM 44.1 °F 38.6 °F 39.4 °F 84% 29.95 in 10.0 mi WNW 10.4 mph 17.3 mph N/A   Overcast
5:15 AM 43.7 °F 36.9 °F 39.0 °F 84% 29.97 in 10.0 mi WNW 13.8 mph 19.6 mph N/A   Overcast
5:34 AM 43.3 °F 37.7 °F 38.3 °F 82% 29.99 in 10.0 mi WNW 10.4 mph 19.6 mph N/A   Overcast
5:54 AM 42.8 °F 37.5 °F 37.4 °F 81% 30.00 in 10.0 mi West 9.2 mph - N/A   Scattered Clouds
6:15 AM 42.4 °F 37.0 °F 36.7 °F 80% 30.02 in 10.0 mi West 9.2 mph 17.3 mph N/A   Scattered Clouds
6:34 AM 42.6 °F 37.2 °F 35.8 °F 77% 30.02 in 10.0 mi WNW 9.2 mph 18.4 mph N/A   Mostly Cloudy
6:54 AM 42.6 °F 37.8 °F 36.0 °F 77% 30.02 in 10.0 mi WNW 8.1 mph 16.1 mph N/A   Overcast
7:14 AM 42.4 °F 37.0 °F 36.0 °F 78% 30.03 in 10.0 mi West 9.2 mph - N/A   Overcast
7:34 AM 42.4 °F 36.5 °F 35.1 °F 75% 30.05 in 10.0 mi West 10.4 mph 17.3 mph N/A   Overcast
8:14 AM 42.4 °F 38.1 °F 34.7 °F 74% 30.08 in 10.0 mi WNW 6.9 mph - N/A   Overcast
8:34 AM 42.8 °F 37.5 °F 34.2 °F 72% 30.09 in 10.0 mi West 9.2 mph 16.1 mph N/A   Overcast
8:54 AM 42.8 °F - 34.7 °F 73% 30.11 in 10.0 mi Calm Calm - N/A   Overcast
9:54 AM 43.2 °F 38.4 °F 32.7 °F 67% 30.14 in 10.0 mi West 8.1 mph - N/A   Overcast
10:15 AM 45.0 °F 40.1 °F 32.7 °F 62% 30.14 in 10.0 mi West 9.2 mph - N/A   Overcast
10:34 AM 45.9 °F 41.7 °F 32.0 °F 58% 30.15 in 10.0 mi West 8.1 mph - N/A   Mostly Cloudy
10:54 AM 44.2 °F 37.3 °F 30.0 °F 57% 30.16 in 10.0 mi West 15.0 mph 20.7 mph N/A   Scattered Clouds
11:15 AM 46.0 °F 41.4 °F 28.0 °F 50% 30.16 in 10.0 mi West 9.2 mph 18.4 mph N/A   Scattered Clouds
11:34 AM 46.6 °F - 27.7 °F 48% 30.17 in 10.0 mi West 16.1 mph 24.2 mph N/A   Clear
11:54 AM 46.8 °F - 27.1 °F 46% 30.18 in 10.0 mi West 15.0 mph 24.2 mph N/A   Clear
12:15 PM 47.3 °F - 26.6 °F 45% 30.18 in 10.0 mi West 10.4 mph 24.2 mph N/A   Clear
12:34 PM 47.5 °F - 26.6 °F 44% 30.19 in 10.0 mi WNW 10.4 mph 23.0 mph N/A   Scattered Clouds
12:54 PM 47.7 °F - 27.1 °F 45% 30.20 in 10.0 mi West 12.7 mph 20.7 mph N/A   Scattered Clouds
1:14 PM 48.4 °F - 26.6 °F 43% 30.20 in 10.0 mi West 15.0 mph 21.9 mph N/A   Scattered Clouds
1:34 PM 48.0 °F - 25.9 °F 42% 30.20 in 10.0 mi WNW 15.0 mph 20.7 mph N/A   Scattered Clouds
1:55 PM 46.8 °F - 26.8 °F 46% 30.20 in 10.0 mi West 12.7 mph 18.4 mph N/A   Clear
2:14 PM 48.2 °F - 25.2 °F 41% 30.20 in 10.0 mi West 12.7 mph 18.4 mph N/A   Clear
2:34 PM 49.1 °F - 25.0 °F 39% 30.20 in 10.0 mi West 12.7 mph 18.4 mph N/A   Scattered Clouds
2:55 PM 49.5 °F - 26.4 °F 41% 30.20 in 10.0 mi West 15.0 mph 19.6 mph N/A   Mostly Cloudy
3:14 PM 48.9 °F - 26.2 °F 41% 30.20 in 10.0 mi WNW 9.2 mph 16.1 mph N/A   Mostly Cloudy
3:35 PM 49.1 °F - 25.9 °F 40% 30.20 in 10.0 mi West 8.1 mph - N/A   Scattered Clouds
3:54 PM 48.9 °F - 25.3 °F 40% 30.20 in 10.0 mi West 9.2 mph - N/A   Scattered Clouds
4:14 PM 49.6 °F - 26.8 °F 41% 30.21 in 10.0 mi West 5.8 mph - N/A   Scattered Clouds
4:34 PM 48.9 °F - 25.3 °F 40% 30.22 in 10.0 mi WNW 6.9 mph - N/A   Clear
4:54 PM 48.7 °F - 25.3 °F 40% 30.22 in 10.0 mi West 6.9 mph - N/A   Clear
5:15 PM 48.4 °F - 26.1 °F 42% 30.22 in 10.0 mi West 6.9 mph - N/A   Scattered Clouds
5:34 PM 47.7 °F - 26.6 °F 44% 30.23 in 10.0 mi West 8.1 mph - N/A   Scattered Clouds
5:54 PM 46.8 °F - 26.6 °F 45% 30.23 in 10.0 mi West 6.9 mph - N/A   Clear
6:15 PM 45.3 °F 41.6 °F 27.5 °F 50% 30.24 in 10.0 mi West 6.9 mph - N/A   Clear
6:34 PM 43.9 °F 40.5 °F 28.6 °F 55% 30.25 in 10.0 mi West 5.8 mph - N/A   Clear
6:54 PM 43.0 °F 38.8 °F 28.9 °F 58% 30.25 in 10.0 mi West 6.9 mph - N/A   Clear
7:15 PM 42.3 °F 38.6 °F 28.8 °F 59% 30.25 in 10.0 mi West 5.8 mph - N/A   Clear
7:34 PM 41.7 °F 38.0 °F 28.8 °F 60% 30.26 in 10.0 mi West 5.8 mph - N/A   Clear
7:54 PM 41.0 °F 37.1 °F 28.9 °F 62% 30.26 in 10.0 mi West 5.8 mph - N/A   Clear
8:14 PM 40.1 °F 36.9 °F 28.9 °F 64% 30.27 in 10.0 mi West 4.6 mph - N/A   Clear
8:34 PM 39.2 °F 35.9 °F 29.1 °F 67% 30.27 in 10.0 mi West 4.6 mph - N/A   Clear
9:14 PM 38.3 °F 34.8 °F 28.9 °F 69% 30.27 in 10.0 mi West 4.6 mph - N/A   Clear
9:34 PM 37.4 °F 32.8 °F 29.1 °F 72% 30.26 in 10.0 mi WSW 5.8 mph - N/A   Clear
9:55 PM 36.7 °F 32.9 °F 29.1 °F 74% 30.26 in 10.0 mi WSW 4.6 mph - N/A   Clear
10:14 PM 36.5 °F 32.7 °F 28.9 °F 74% 30.26 in 10.0 mi West 4.6 mph - N/A   Clear
10:34 PM 35.8 °F 31.9 °F 28.6 °F 75% 30.27 in 10.0 mi WSW 4.6 mph - N/A   Clear
10:54 PM 35.2 °F 32.4 °F 28.6 °F 77% 30.27 in 10.0 mi WSW 3.5 mph - N/A   Clear
11:14 PM 34.3 °F 31.4 °F 28.4 °F 79% 30.27 in 10.0 mi WSW 3.5 mph - N/A   Clear
11:34 PM 34.0 °F 31.0 °F 28.4 °F 80% 30.27 in 10.0 mi SW 3.5 mph - N/A   Clear
11:55 PM 35.2 °F 32.4 °F 28.6 °F 77% 30.27 in 10.0 mi SW 3.5 mph - N/A   Clear